星链-3244 (STARLINK-3244 )

导读 | 星芒AI

STARLINK-3244 是 SpaceX Starlink 卫星互联网项目中的一颗低轨卫星,属于第 32 批发射的星链卫星群。该卫星运行在约 550 公里的近地轨道,旨在为全球用户提供高速互联网服务。作为星链计划的重要组成部分,STARLINK-3244 采用先进通信技术,支持宽带数据传输,提升偏远地区的网络覆盖。其部署有助于构建更稳定、低延迟的全球卫星网络系统。

基本信息
目录编号:
49741
目录名称:
STARLINK-3244
国际标识:
2021-115T
轨道中心:
EARTH
卫星名称:
星链-3244
卫星全名:
星链-3244 (STARLINK-3244 )
卫星状态:
在轨 (已飞行1479 天)
发射日期:
2021-12-02 UTC
国别 :
美国 (US)
星等 :
--
轨道信息
数据来源 国际轨道数据 AOE轨道数据
星历时间 2025-12-20T11:05:56+0800
5小时前
查看轨道信息
2025-12-16T13:00:00+0800
4天前
查看轨道信息
半长轴 6917.878km 6917.933km
偏心率 0.0001384 0.000149
轨道倾角 53.218° 53.215°
近地点辐角 88.643° 79.127°
升交点赤经 146.293° 163.894°
平近点角 271.473° 212.366°
近地点 538.783km 538.767km
远地点 540.699km 540.829km
周期 95.437分钟 95.439分钟
每日圈数 15.088409 15.088228
详细信息
固有亮度:
5
最大亮度:
2.5
卫星平台:
Starlink v1.5
覆盖范围:
全球
运营商:
太空探索技术公司
运营商所在国:
美国
制造商(研发单位):
太空探索技术公司
制造商所在国:
美国
使用方式:
暂无
卫星简介
星链(Starlink)计划是由太空探索技术公司(SpaceX)提出的一个巨型低轨卫星互联网星座项目,计划在2019年至2024年间在太空搭建由约1.2万颗卫星组成的“星链”网络,其中1584颗将部署在地球上空550千米处的近地轨道,并从2020年开始工作。该卫星仍在工作。
2D轨道图
3D轨道图
轨道高度分析图
轨道倾角分析图
轨道综合分析图
查看轨道综合分析图